Location: Aulagny
(45.1643°N, 4.3096°E)
Time: 23:20:23
(UTC+00:00)

SJ 16-02 - Pass Details

Date: 21 October 2019
Orbit: 607 x 616 km, 75.0° (Epoch: 11 November)

Event Time Altitude Azimuth Distance (km) Brightness Sun altitude
Rises 19:58:46 0° 331° (NNW) 2,878 5.4 -33.9°
Reaches altitude 10° 20:01:10 10° 322° (NW) 1,967 4.5 -34.3°
Enters shadow 20:02:46 20° 309° (NW) 1,431 3.8 -34.6°
